COSMOS 1275 DEB, 13486

Orbit data source: Space-Track

COSMOS 1275 DEB, 13486 is space debris in LEO originally from a launch on Thu, 04 Jun 1981 UTC launched from the Plesetsk Missile And Space Complex (PKMTR). Debris objects in space refer to the collection of defunct objects orbiting the Earth. Examples of debris include non-operational satellites, rocket bodies, and fragments generated from explosions, collisions, or faulty payload assembly.

Loading next visibility...
Identifier
13486, 1981-053GG
Orbit
LEO
Country
Flag of CISCIS
Related business
Manufacturer
Unknown
Mission
Spacecraft
Bus & Motor
Unknown
Mass
Unknown
Launch date (UTC)
1981-06-04 (45 years ago)
Launch vehicle
Unknown
Launch site
Plesetsk Missile And Space Complex (PKMTR)
Object type
Payload
Rocket body
Debris
Shape & HBR
Unknown shape, 0.1 m
Radar Cross Section
Small (<0.1 m²)

Expand to show TLE details & history
Last TLE update: 8 hours ago

TLE from 8 hours ago
0 COSMOS 1275 DEB
1 13486U 81053GG  25343.38368818  .00436586  00000-0  10295-1 0  9991
2 13486  82.8516 220.3636 0013251  69.1653 291.1011 15.40123545244496
Epoch: 2025-12-09T09:12Z
TLE epoch observation values (Epoch: 2025-12-09T09:12:30.658Z)
Latitude
-0.00009°
Longitude
3.8667°
Altitude
445.624 km
Speed
7.647 km/s
True Right ascension
14h 41m 27s
True Declination
0° 00' 00"
Sunlit
Object was in daylight at epoch
Visualization orbit readout
Latitude
Unknown
Longitude
Unknown
Altitude
Unknown
Speed
Unknown
Apparent Right ascension
Unknown
Apparent Declination
Unknown
Sunlit
N/A
Visualization observer readout
Local Sidereal Time
15:36:18
Azimuth
Unknown
Elevation
Unknown
Doppler factor
Unknown
Orbital elements
Apogee altitude
451.711 km
Perigee altitude
433.634 km
Semi-major axis
6,820.809 km
Eccentricity
0.00133
Inclination
82.8516°
RAAN
220.3636°
Arg. of periapsis
69.1653°
True anomaly
290.95935°
Mean anomaly
291.1011°
Eccentric anomaly
291.03023°
Mean motion
3.85291 °/min
Orbital period
93.44 mins
BSTAR
0.010295
Loading maneuver chart data...
Computing Atmospheric mass density...
Loading historical data...
Loading historical data...
Loading historical data...
Loading historical data...
Loading historical data...
Loading historical data...
Loading historical data...

Documentation

Showing up to 5 results
|